FENGYUN 1C DEB, 36203

Orbit data source: Space-Track

FENGYUN 1C DEB, 36203 is space debris in SSO originally from a launch on Mon, 10 May 1999 UTC launched from the Taiyaun Space Center, China (TSC). Fengyun 1C debris stems from the Chinese weather satellite Fengyun-1C, which was intentionally destroyed by a Chinese anti-satellite missile in 2007. This event dramatically increased the amount of space debris, with thousands of trackable fragments posing hazards to satellites and human spaceflight. The Fengyun 1C debris cloud has become a focal point in discussions about space sustainability and the need for international regulations to prevent the creation of new debris.

Loading next visibility...
Identifier
36203, 1999-025DUC
Orbit
SSO
Country
Flag of CNCN / PRC
Related business
Manufacturer
Unknown
Mission
Spacecraft
Bus & Motor
Unknown
Mass
Unknown
Launch date (UTC)
1999-05-10 (27 years ago)
Launch vehicle
Unknown
Launch site
Taiyaun Space Center, China (TSC)
Object type
Payload
Rocket body
Debris
Shape & HBR
Unknown shape, 0.1 m
Radar Cross Section
Small (<0.1 m²)

Expand to show TLE details & history
Last TLE update: 3 days ago

TLE from 3 days ago
0 FENGYUN 1C DEB
1 36203U 99025DUC 26131.17908690  .00006290  00000-0  76186-3 0  9990
2 36203  99.1117  99.8582 0079638  41.6369 319.0866 14.81811015656399
Epoch: 2026-05-11T04:17Z
TLE epoch observation values (Epoch: 2026-05-11T04:17:53.108Z)
Latitude
-0.00004°
Longitude
166.41539°
Altitude
584.644 km
Speed
7.591 km/s
True Right ascension
06h 39m 25s
True Declination
0° 00' 00"
Sunlit
Object was in daylight at epoch
Visualization orbit readout
Latitude
Unknown
Longitude
Unknown
Altitude
Unknown
Speed
Unknown
Apparent Right ascension
Unknown
Apparent Declination
Unknown
Sunlit
N/A
Visualization observer readout
Local Sidereal Time
03:56:38
Azimuth
Unknown
Elevation
Unknown
Doppler factor
Unknown
Orbital elements
Apogee altitude
676.447 km
Perigee altitude
564.973 km
Semi-major axis
6,998.847 km
Eccentricity
0.00796
Inclination
99.1117°
RAAN
99.8582°
Arg. of periapsis
41.6369°
True anomaly
318.48441°
Mean anomaly
319.0866°
Eccentric anomaly
318.78596°
Mean motion
3.70684 °/min
Orbital period
97.12 mins
BSTAR
0.00076186
Loading maneuver chart data...
Computing Atmospheric mass density...

Documentation

Showing up to 5 results
|